Date String (YYYY-MM-DD hh:mm:ss) UTC,Instrument flags,Ambient pressure (hPa),Sample flow (lpm),Bypass flow (lpm),Sample temperature (°C),Ambient temperature (°C),ASC tube jacket temperature (°C),LED temperature (°C),Box temperature (°C),Sample RH (%),Mass concentration (μg/m³),Mass concentration (μg/m³)
DateTimeUTC,F1_M11,P_M11,Q1_M11,Q2_M11,T1_M11,T2_M11,T3_M11,T4_M11,T5_M11,U1_M11,X0_M11,X2_M11
2021-08-17 05:00:00,,0825.9,4.99,0.00,29.2,27.6,00.0,38.3,30.9,17.5,0037.10,0026.41
2021-08-17 05:01:00,,0825.9,5.00,0.00,29.2,27.8,00.0,38.3,31.0,17.5,0037.69,0026.41
2021-08-17 05:02:00,,0825.9,5.00,0.00,29.2,28.0,00.0,38.3,31.0,17.4,0037.58,0026.40
2021-08-17 05:03:00,,0825.9,5.00,0.00,29.3,28.1,00.0,38.3,31.1,17.3,0037.43,0026.38
2021-08-17 05:04:00,,0826.0,5.00,0.00,29.3,28.3,00.0,38.3,31.2,17.2,0037.26,0026.28
2021-08-17 05:05:00,,0825.9,4.99,0.00,29.4,28.4,00.0,38.4,31.2,17.1,0037.03,0026.16
2021-08-17 05:06:00,,0826.0,5.00,0.00,29.4,28.5,00.0,38.4,31.3,17.1,0036.85,0026.04
2021-08-17 05:07:00,,0826.0,5.01,0.00,29.5,28.6,00.0,38.4,31.3,17.1,0036.64,0026.02
2021-08-17 05:08:00,,0826.0,4.99,0.00,29.5,28.6,00.0,38.4,31.4,17.0,0035.83,0025.95
2021-08-17 05:09:00,,0826.0,5.00,0.00,29.6,28.7,00.0,38.5,31.4,17.0,0035.65,0026.00
2021-08-17 05:10:00,,0826.0,4.99,0.00,29.6,28.7,00.0,38.5,31.4,17.0,0035.91,0025.94
2021-08-17 05:11:00,,0826.0,5.01,0.00,29.6,27.4,00.0,38.5,31.1,17.0,0035.98,0025.88
2021-08-17 05:12:00,,0825.9,5.00,0.00,29.4,26.2,00.0,38.5,30.7,17.1,0035.56,0025.78
2021-08-17 05:13:00,,0825.9,5.00,0.00,29.3,26.3,00.0,38.5,30.8,17.2,0036.69,0025.75
2021-08-17 05:14:00,,0825.9,4.99,0.00,29.3,26.7,00.0,38.4,30.8,17.2,0036.95,0025.67
2021-08-17 05:15:00,,0825.9,5.00,0.00,29.3,27.1,00.0,38.4,30.9,17.3,0037.27,0025.69
2021-08-17 05:16:00,,0825.9,5.01,0.00,29.3,27.4,00.0,38.4,31.0,17.3,0037.16,0025.69
2021-08-17 05:17:00,,0825.9,5.00,0.00,29.3,27.7,00.0,38.4,31.1,17.3,0037.36,0025.76
2021-08-17 05:18:00,,0826.0,5.00,0.00,29.3,27.9,00.0,38.4,31.1,17.2,0037.03,0025.71
2021-08-17 05:19:00,,0826.0,5.00,0.00,29.4,28.1,00.0,38.4,31.2,17.1,0037.10,0025.72
2021-08-17 05:20:00,,0826.0,4.98,0.00,29.4,28.3,00.0,38.4,31.2,17.0,0037.10,0025.70
2021-08-17 05:21:00,,0826.0,5.01,0.00,29.5,28.4,00.0,38.4,31.3,17.0,0036.74,0025.69
2021-08-17 05:22:00,,0826.0,5.00,0.00,29.5,28.5,00.0,38.5,31.4,17.0,0036.86,0025.72
2021-08-17 05:23:00,,0826.0,5.00,0.00,29.5,28.6,00.0,38.5,31.4,16.9,0036.15,0025.77
2021-08-17 05:24:00,,0826.0,5.01,0.00,29.6,28.7,00.0,38.5,31.4,16.9,0035.68,0025.75
2021-08-17 05:25:00,,0826.0,5.00,0.00,29.6,28.7,00.0,38.5,31.5,16.9,0035.36,0025.80
2021-08-17 05:26:00,,0826.0,5.00,0.00,29.6,28.4,00.0,38.6,31.4,16.8,0035.05,0025.78
2021-08-17 05:27:00,,0825.9,4.99,0.00,29.5,26.4,00.0,38.5,30.9,16.9,0035.10,0025.82
2021-08-17 05:28:00,,0825.9,5.01,0.00,29.3,25.3,00.0,38.5,30.5,17.1,0034.98,0025.79
2021-08-17 05:29:00,,0825.9,4.99,0.00,29.2,25.6,00.0,38.5,30.5,17.3,0035.62,0025.82
2021-08-17 05:30:00,,0825.9,5.01,0.00,29.1,26.1,00.0,38.4,30.6,17.2,0035.70,0025.75
2021-08-17 05:31:00,,0825.8,5.00,0.00,29.1,26.5,00.0,38.4,30.7,17.2,0035.71,0025.68
2021-08-17 05:32:00,,0825.9,5.00,0.00,29.1,26.9,00.0,38.3,30.8,17.1,0035.87,0025.67
2021-08-17 05:33:00,,0825.9,4.99,0.00,29.1,27.3,00.0,38.3,30.9,17.1,0035.07,0025.62
2021-08-17 05:34:00,,0825.8,5.00,0.00,29.2,27.5,00.0,38.3,30.9,17.1,0034.84,0025.58
2021-08-17 05:35:00,,0825.9,5.00,0.00,29.2,27.8,00.0,38.3,31.0,17.0,0034.28,0025.58
2021-08-17 05:36:00,,0825.9,4.99,0.00,29.2,28.0,00.0,38.3,31.1,17.0,0034.18,0025.61
2021-08-17 05:37:00,,0825.9,5.01,0.00,29.3,28.1,00.0,38.3,31.1,16.9,0034.52,0025.67
2021-08-17 05:38:00,,0825.9,5.00,0.00,29.3,28.2,00.0,38.4,31.2,16.9,0034.66,0025.66
2021-08-17 05:39:00,,0825.9,5.00,0.00,29.4,28.3,00.0,38.4,31.2,16.9,0034.84,0025.71
2021-08-17 05:40:00,,0825.9,5.01,0.00,29.4,28.4,00.0,38.4,31.3,16.8,0034.88,0025.68
2021-08-17 05:41:00,,0825.9,5.00,0.00,29.5,28.5,00.0,38.4,31.3,16.7,0034.62,0025.72
2021-08-17 05:42:00,,0825.9,5.00,0.00,29.5,28.6,00.0,38.4,31.4,16.7,0034.64,0025.78
2021-08-17 05:43:00,,0825.9,4.99,0.00,29.5,28.7,00.0,38.5,31.4,16.6,0034.49,0025.79
2021-08-17 05:44:00,,0825.9,5.00,0.00,29.6,28.7,00.0,38.5,31.4,16.6,0034.76,0025.80
2021-08-17 05:45:00,,0825.9,5.00,0.00,29.6,28.8,00.0,38.5,31.5,16.5,0035.72,0025.85
2021-08-17 05:46:00,,0825.9,4.99,0.00,29.7,28.6,00.0,38.6,31.4,16.5,0035.83,0025.88
2021-08-17 05:47:00,,0825.9,5.01,0.00,29.6,26.9,00.0,38.5,30.9,16.5,0035.86,0025.87
2021-08-17 05:48:00,,0825.8,4.98,0.00,29.4,25.4,00.0,38.5,30.5,16.7,0035.61,0025.83
2021-08-17 05:49:00,,0825.9,5.01,0.00,29.2,25.5,00.0,38.5,30.5,16.8,0036.01,0025.87
2021-08-17 05:50:00,,0826.1,5.00,0.00,29.2,25.9,00.0,38.4,30.6,16.8,0035.92,0025.83
2021-08-17 05:51:00,,0825.8,5.00,0.00,29.1,26.4,00.0,38.4,30.7,16.8,0036.35,0025.84
2021-08-17 05:52:00,,0825.8,5.00,0.00,29.1,26.8,00.0,38.4,30.8,16.8,0036.28,0025.85
2021-08-17 05:53:00,,0825.9,4.99,0.00,29.1,27.2,00.0,38.3,30.8,16.9,0036.39,0025.89
2021-08-17 05:54:00,,0825.9,5.00,0.00,29.2,27.5,00.0,38.3,30.9,16.8,0036.56,0025.92
2021-08-17 05:55:00,,0825.8,5.01,0.00,29.2,27.7,00.0,38.3,31.0,16.7,0036.38,0025.89
2021-08-17 05:56:00,,0825.8,4.99,0.00,29.2,27.9,00.0,38.3,31.0,16.8,0035.32,0025.86
2021-08-17 05:57:00,,0825.9,5.01,0.00,29.3,28.1,00.0,38.3,31.1,16.7,0035.58,0025.81
2021-08-17 05:58:00,,0825.9,5.00,0.00,29.3,28.2,00.0,38.3,31.2,17.0,0035.54,0025.78
2021-08-17 05:59:00,,0825.9,5.01,0.00,29.4,28.3,00.0,38.4,31.2,17.2,0036.29,0025.80
